Regional Weather Roundup
Issued by NWS Kansas City/Pleasant Hill, MO

Home | Current Version | Previous Version | Text Only | Print | Product List | Glossary On
Versions: 1 2 3 4 5 6 7 8 9 10 11 12 13 14 15 16 17 18 19 20 21 22 23 24 25 26 27 28 29 30 31 32 33 34 35 36 37 38 39 40 41 42 43 44 45 46 47 48 49 50
000
ASUS43 KEAX 110511
RWREAX

WEATHER ROUNDUP FOR EASTERN KANSAS AND NORTHWEST MISSOURI
NATIONAL WEATHER SERVICE KANSAS CITY/PLEASANT HILL MO
1200 AM CDT FRI JUL 11 2014

KSZ040-057-103>105-MOZ028-029-037-043-110600-
...KANSAS CITY METROPOLITAN AREA...

CITY           SKY/WX    TMP DP  RH WIND       PRES   REMARKS
K.C. INTL      CLEAR     72  65  78 SE9       30.07S
K.C. DOWNTOWN  CLEAR     75  65  70 SE7       30.06S
LEES SUMMIT    CLEAR     72  66  81 SE6       30.08S
OLATHE - IXD   CLEAR     71  62  73 SE9       30.08R
OLATHE - OJC   CLEAR     70  63  78 SE7       30.07R
LAWRENCE       CLEAR     70  64  81 SE6       30.06R

$$

MOZ001>008-011>017-020>025-030>033-038>040-044>046-053-054-110600-
...NORTHERN AND CENTRAL MISSOURI...

CITY           SKY/WX    TMP DP  RH WIND       PRES   REMARKS
ST. JOSEPH     CLEAR     72  66  81 SE12      30.06S
MOSBY          CLEAR     72  64  78 CALM      30.07S
WARRENSBURG    CLEAR     70  63  78 E8        30.09S
WHITEMAN AFB   CLEAR     69  61  75 SE6       30.10R
CLINTON        CLEAR     70  64  83 CALM      30.10S
SEDALIA        CLEAR     69  64  84 SE6       30.11S
WARSAW         NOT AVBL
MARSHALL         N/A     72  64  78 E6        30.12S
CHILLICOTHE      N/A     71  61  70 SE5       30.11S
MOBERLY        PTCLDY    66  59  77 SE5       30.14R
KIRKSVILLE     CLEAR     66  59  78 SE6       30.14R

$$

MOZ041-047>049-056>058-063>065-088>090-097-110600-
...EASTERN AND SOUTHERN MISSOURI...

CITY           SKY/WX    TMP DP  RH WIND       PRES   REMARKS
ST. LOUIS INTL PTCLDY    71  57  61 E5        30.15R
SPIRIT OF STL  CLEAR     64  60  87 CALM      30.13R
COLUMBIA       MOCLDY    68  62  81 SE6       30.13R
JEFFERSON CITY CLEAR     68  63  84 SE5       30.12R
MEXICO         CLEAR     66  64  94 E5        30.14R
HANNIBAL       PTCLDY    68  54  60 SE3       30.14S
ROLLA          CLEAR     66  62  87 E7        30.13R
LEBANON        CLEAR     68  64  88 SE3       30.13S
OSAGE BEACH      N/A     70  63  78 E5        30.12R VSB<1/4
SPRINGFIELD    PTCLDY    69  65  86 SE8       30.11S
BRANSON        PTCLDY    68  66  94 SE6       30.13S
NEVADA         CLEAR     70  66  88 SE6       30.10R
JOPLIN         CLEAR     68  66  93 SE5       30.09R
WEST PLAINS    MOCLDY    70  66  87 E5        30.15S
PIEDMONT       CLEAR     66  66 100 CALM      30.14R
MALDEN         PTCLDY    73  66  78 NE3       30.12S

$$

IAZ060-094-KSZ022-034>040-054-083-096-NEZ052-066-093-110600-
...KANSAS...SOUTHEAST NEBRASKA AND IOWA...

CITY           SKY/WX    TMP DP  RH WIND       PRES   REMARKS
TOPEKA         CLEAR     74  65  73 SE8       30.05R
MANHATTAN      CLEAR     72  64  76 E3        30.02R
EMPORIA        CLEAR     70  67  90 S8        30.04R
CHANUTE        CLEAR     70  67  90 SE7       30.06R
WICHITA        PTCLDY    72  67  84 SE10      30.00S
OMAHA          CLEAR     75  64  68 S16       30.01R
LINCOLN        CLEAR     74  65  73 S12       30.01S
FALLS CITY     CLEAR     70  66  87 SE8       30.03S
LAMONI         CLEAR     67  59  75 SE9       30.08F
DES MOINES     PTCLDY    71  59  65 S9        30.07R

$$



USA.gov is the U.S. government's official web portal to all federal, state and local government web resources and services.